[[{"header":{"parameterUnit":"m.s-1","parameterCategory":1,"la1":30.2991,"la2":30.254,"lo1":-89.0895,"lo2":-89.0444,"dy":0.0017,"dx":0.0017,"nx":28,"ny":28,"refTime":"2024-03-18T21:00:00:Z","depth":0,"parameterNumber":2,"parameterNumberName":"U-component_of_WINDS"},"data":[0,0,0,0,0,0,0,0,0,0,0,0,0,0,0,0,0,0,0,0,0,0,0,0,0,0,0,0,0,0,0,0,0,0,0,0,0,0,0,0,0,0,0,0,0,0,0,0,0,0,0,0,0,0,0,0,0,0,1.9808,1.9809,0,1.9857,1.9858,1.9858,1.9858,1.9857,1.9857,1.9856,1.9907,1.9908,1.991,0,0,0,0,0,0,0,0,0,0,0,0,0,1.9716,1.9717,1.9808,1.9809,1.9809,1.9857,1.9858,1.9858,1.9858,1.9857,1.9857,1.9856,1.9906,1.9908,1.9911,0,0,0,0,0,0,0,0,0,0,0,0,0,1.9759,1.9718,1.9808,1.9815,1.9816,1.9857,1.9858,1.9859,1.9858,1.9857,1.9856,1.9856,1.9905,1.9908,1.9911,1.9948,0,0,1.992,1.9921,0,0,0,0,0,0,0,0,1.9757,1.9763,1.9813,1.9815,1.9816,1.9851,1.9844,1.9889,1.9859,1.9842,1.9856,1.9855,1.9889,1.9893,1.9904,1.995,1.9953,1.992,1.9922,1.9923,1.9924,0,0,0,0,0,0,0,1.9754,1.9761,1.9827,1.9814,1.9816,1.9816,1.9821,1.9852,1.987,1.9844,1.9844,1.985,1.9889,1.9901,1.9905,1.9953,1.992,1.9923,1.9924,1.9925,2.0034,2.0035,0,0,0,0,0,0,1.9749,1.9758,1.9826,1.9829,1.9783,1.9819,1.9824,1.984,1.987,1.9874,1.985,1.9849,1.9897,1.9902,1.9907,1.9954,1.9923,1.9926,1.9927,2.0033,2.0035,2.0036,0,0,0,0,0,0,1.9747,1.9755,1.9824,1.9794,1.9802,1.9821,1.9839,1.9842,1.9854,1.9875,1.9878,1.9859,1.9896,1.9903,1.9938,1.9955,1.9927,1.993,2.0032,2.0034,2.0035,2.0046,0,0,0,0,0,0,1.9745,1.9755,1.9768,1.9794,1.9804,1.9854,1.984,1.9843,1.9859,1.9858,1.9884,1.9888,1.9896,1.9934,1.9941,1.9959,1.9932,2.003,2.0033,2.0035,2.0044,2.0048,2.0051,0,0,0,0,0,1.9741,1.9769,1.9769,1.9777,1.9822,1.9855,1.986,1.9869,1.986,1.9875,1.9889,1.9887,1.9952,1.9938,1.9946,1.9964,2.0029,2.0032,2.0035,2.0043,2.0047,2.0051,0,0,0,0,0,0,1.9745,1.9773,1.9773,1.981,1.983,1.9855,1.9873,1.9874,1.9897,1.9895,1.9906,1.9912,1.9947,1.9959,1.9942,2.0003,1.999,1.9994,1.9993,1.9998,2.0001,1.9997,1.9934,0,0,0,0,0,1.975,1.9774,1.9797,1.9827,1.9838,1.9854,1.9868,1.9874,1.9895,1.9904,1.992,1.9941,1.9966,1.9983,2.0007,2.0046,2.0053,2.0063,2.0067,2.0069,2.0073,2.0096,2.0101,2.0044,2.0044,2.0044,0,0,1.976,1.9779,1.9793,1.9829,1.9845,1.987,1.9861,1.9888,1.9907,1.9908,1.9942,1.9955,1.9979,2.0017,2.0034,2.0028,2.009,2.0073,2.0075,2.0077,2.0099,2.0104,2.0109,2.0046,2.0046,2.0045,0,0,1.9793,1.9809,1.9836,1.9853,1.9878,1.9889,1.9896,1.9921,1.9929,1.9964,1.9966,1.9989,2.0032,2.005,2.0065,2.0106,2.0106,2.0114,2.0131,2.0153,2.0158,2.0162,2.0177,2.0182,2.0117,2.0117,2.0117,0,1.9802,1.984,1.985,1.9877,1.9894,1.9896,1.9925,1.9941,1.9973,1.9984,1.9977,2.0032,2.0049,2.0091,2.0102,2.0113,2.0122,2.011,2.0156,2.0161,2.0164,2.0179,2.0185,2.0118,2.0118,2.0118,2.0118,0,1.9852,1.9878,1.9897,1.9929,1.9947,1.9975,1.9989,2.0007,2.0011,2.0023,2.0059,2.008,2.0109,2.012,2.0124,2.0163,2.0159,2.0154,2.0141,2.017,2.0184,2.019,2.0119,2.0119,2.0119,2.0119,0,0,1.9886,1.9923,1.993,1.9945,1.9974,1.9994,2.0023,2.0052,2.0067,2.009,2.0114,2.0152,2.0149,2.0165,2.0172,2.0191,2.0224,2.0185,2.0185,2.0191,2.0269,2.0272,2.0279,2.0224,2.0225,2.0226,2.0267,0,1.9921,1.9971,1.9982,2.0026,2.0051,2.0055,2.008,2.0101,2.0113,2.0137,2.0151,2.0178,2.0171,2.0181,2.02,2.0216,2.024,2.0213,2.0248,2.0249,2.0241,2.0286,2.0289,2.0327,2.0273,2.0274,2.0275,0,1.9968,1.9992,2.0039,2.0066,2.0077,2.0099,2.0127,2.015,2.0174,2.0182,2.0202,2.0207,2.0238,2.0224,2.0267,2.0249,2.0264,2.0274,2.0276,2.0279,2.0263,2.029,2.0339,2.0345,2.0283,2.0282,2.0282,0,1.9989,2.0033,2.0067,2.0079,2.0111,2.0127,2.0141,2.0165,2.0182,2.0207,2.0219,2.0247,2.0262,2.0285,2.0298,2.0286,2.034,2.0327,2.0348,2.0348,2.0358,2.0357,2.041,2.0369,2.0369,2.0368,2.0368,0,2.0027,2.0055,2.0077,2.0097,2.013,2.0142,2.0174,2.0189,2.021,2.0234,2.024,2.0262,2.0278,2.0304,2.0314,2.0349,2.0356,2.0363,2.0366,2.0363,2.0362,2.0372,2.037,2.037,2.037,2.0369,2.0369,0,2.0055,2.007,2.0107,2.0135,2.0143,2.0166,2.019,2.0211,2.0224,2.0255,2.0263,2.0284,2.0314,2.0329,2.0367,2.0374,2.0413,2.0414,2.0405,2.0406,2.0426,2.0424,2.0487,2.0496,2.0448,2.0449,2.0449,0,2.0078,2.01,2.013,2.0147,2.0162,2.0188,2.0206,2.022,2.0239,2.027,2.0287,2.0318,2.0343,2.0391,2.041,2.0439,2.0441,2.0461,2.0445,2.0442,2.0441,2.044,2.0443,2.0464,2.0464,2.0464,2.0465,0,2.0117,2.0124,2.0149,2.0178,2.02,2.0223,2.0246,2.0259,2.0277,2.0298,2.0329,2.0349,2.0388,2.0419,2.045,2.0465,2.0468,2.047,2.0476,2.0473,2.0467,2.0471,2.0413,2.0468,2.0468,2.0467,2.0467,2.0467,2.0143,2.0163,2.0189,2.0217,2.0236,2.0258,2.0279,2.0296,2.0322,2.0355,2.0362,2.0395,2.0421,2.0463,2.048,2.0506,2.0502,2.0511,2.0513,2.0515,2.0516,2.0463,2.0512,2.0512,2.0512,2.0512,2.0512,0,2.0183,2.02,2.0226,2.0258,2.0281,2.0283,2.0309,2.0328,2.0357,2.0381,2.0406,2.0443,2.0473,2.0495,2.0526,2.0544,2.0546,2.0551,2.055,2.0554,2.0518,2.051,2.0549,2.0549,2.0549,2.0549,2.0549,2.0549,2.0206,2.0241,2.0251,2.0296,2.0313,2.0345,2.036,2.0381,2.04,2.044,2.0466,2.048,2.0504,2.0537,2.0565,2.0571,2.0582,2.0588,2.0594,2.056,2.0556,2.0552,2.0544,2.059,2.059,2.0627,2.0627,2.0627]},{"header":{"parameterUnit":"m.s-1","parameterCategory":1,"la1":30.2991,"la2":30.254,"lo1":-89.0895,"lo2":-89.0444,"dy":0.0017,"dx":0.0017,"nx":28,"ny":28,"refTime":"2024-03-18T21:00:00:Z","depth":0,"parameterNumber":3,"parameterNumberName":"V-component_of_WINDS"},"data":[0,0,0,0,0,0,0,0,0,0,0,0,0,0,0,0,0,0,0,0,0,0,0,0,0,0,0,0,0,0,0,0,0,0,0,0,0,0,0,0,0,0,0,0,0,0,0,0,0,0,0,0,0,0,0,0,0,0,-8.8983,-8.8985,0,-8.9169,-8.9172,-8.9174,-8.9114,-8.911,-8.9106,-8.9102,-8.9287,-8.9295,-8.9304,0,0,0,0,0,0,0,0,0,0,0,0,0,-8.8572,-8.858,-8.8983,-8.8986,-8.8988,-8.9169,-8.9172,-8.9174,-8.9114,-8.9109,-8.9105,-8.91,-8.9284,-8.9294,-8.9305,0,0,0,0,0,0,0,0,0,0,0,0,0,-8.8754,-8.8583,-8.8983,-8.898,-8.8982,-8.9169,-8.9172,-8.9175,-8.9115,-8.9109,-8.9103,-8.9098,-8.9281,-8.9293,-8.9306,-8.9505,0,0,-8.9346,-8.9351,0,0,0,0,0,0,0,0,-8.8744,-8.8769,-8.8978,-8.8981,-8.8983,-8.9112,-8.9095,-8.9285,-8.9117,-8.9064,-8.9102,-8.9095,-8.9233,-8.925,-8.9298,-8.9514,-8.9522,-8.9347,-8.9355,-8.936,-8.9364,0,0,0,0,0,0,0,-8.8731,-8.8761,-8.9057,-8.8981,-8.8984,-8.8968,-8.8987,-8.913,-8.918,-8.9069,-8.9065,-8.9088,-8.9233,-8.9285,-8.9302,-8.9525,-8.9347,-8.9358,-8.9366,-8.9371,-8.9915,-8.9921,0,0,0,0,0,0,-8.8718,-8.875,-8.9051,-8.9062,-8.8846,-8.898,-8.9002,-8.9077,-8.9178,-8.9188,-8.9093,-8.9084,-8.9266,-8.9287,-8.9308,-8.9549,-8.936,-8.9372,-8.938,-8.9908,-8.9916,-8.9924,0,0,0,0,0,0,-8.8709,-8.8745,-8.9043,-8.8906,-8.8942,-8.8994,-8.9078,-8.9083,-8.9135,-8.9197,-8.9204,-8.9137,-8.9262,-8.929,-8.9457,-8.9554,-8.9378,-8.939,-8.99,-8.9911,-8.992,-9.0032,0,0,0,0,0,0,-8.8698,-8.8742,-8.882,-8.8908,-8.895,-8.9192,-8.9084,-8.9091,-8.9159,-8.9149,-8.924,-8.9249,-8.926,-8.9438,-8.947,-8.9569,-8.94,-8.9892,-8.9905,-8.9917,-9.002,-9.0045,-9.0066,0,0,0,0,0,-8.8683,-8.8842,-8.8824,-8.886,-8.9048,-8.9197,-8.9221,-8.9231,-8.9167,-8.9244,-8.9284,-8.9247,-8.9539,-8.9456,-8.9491,-8.9596,-8.9886,-8.9901,-8.9916,-9.001,-9.004,-9.0065,0,0,0,0,0,0,-8.8762,-8.8854,-8.8834,-8.9027,-8.9105,-8.9187,-8.9285,-8.9263,-8.9359,-8.9346,-8.9353,-8.9374,-8.9547,-8.9587,-8.9494,-8.9794,-8.9702,-8.9725,-8.9762,-8.9791,-8.9813,-8.98,-8.9411,0,0,0,0,0,-8.8802,-8.8917,-8.899,-8.9153,-8.9194,-8.9233,-8.9298,-8.93,-8.938,-8.9412,-8.9464,-8.9542,-8.9651,-8.9723,-8.9827,-9.0025,-9.0044,-9.0114,-9.0137,-9.0156,-9.0175,-9.0284,-9.0317,-8.9973,-8.9973,-8.9973,0,0,-8.8885,-8.895,-8.9021,-8.9171,-8.9231,-8.935,-8.9261,-8.9389,-8.9477,-8.9431,-8.9594,-8.9634,-8.9722,-8.9906,-8.999,-8.9946,-9.0275,-9.0175,-9.0189,-9.0199,-9.0303,-9.0336,-9.0365,-8.9983,-8.9981,-8.998,0,0,-8.9098,-8.9158,-8.9301,-8.9365,-8.9458,-8.9484,-8.9518,-8.9604,-8.963,-8.9794,-8.9762,-8.9865,-9.0054,-9.0118,-9.0175,-9.0414,-9.0384,-9.0447,-9.0567,-9.0673,-9.07,-9.0724,-9.081,-9.0841,-9.0467,-9.0467,-9.0467,0,-8.9189,-8.9368,-8.9377,-8.951,-8.9576,-8.9542,-8.9687,-8.9747,-8.9869,-8.9915,-8.9864,-9.0101,-9.0157,-9.0357,-9.0416,-9.0463,-9.0502,-9.0437,-9.0696,-9.072,-9.0743,-9.0825,-9.0857,-9.0474,-9.0473,-9.0472,-9.0472,0,-8.9476,-8.96,-8.9704,-8.9826,-8.9904,-9.0042,-9.0071,-9.0149,-9.0143,-9.0174,-9.0341,-9.0408,-9.0525,-9.0572,-9.0567,-9.0772,-9.0742,-9.0694,-9.0601,-9.0783,-9.086,-9.0891,-9.0484,-9.0482,-9.048,-9.0478,0,0,-8.9743,-8.9869,-8.9907,-8.9963,-9.0065,-9.016,-9.0296,-9.0413,-9.048,-9.0565,-9.068,-9.084,-9.0797,-9.0862,-9.0864,-9.0957,-9.1143,-9.0898,-9.09,-9.0942,-9.1373,-9.141,-9.1446,-9.1124,-9.113,-9.1135,-9.1366,0,-8.9964,-9.0206,-9.0219,-9.0437,-9.0553,-9.0523,-9.0641,-9.0716,-9.0748,-9.0849,-9.0883,-9.0998,-9.0932,-9.0971,-9.1062,-9.1102,-9.123,-9.1085,-9.1229,-9.1234,-9.1209,-9.1486,-9.1525,-9.174,-9.1396,-9.1402,-9.1405,0,-9.0255,-9.0353,-9.0584,-9.0671,-9.0719,-9.0826,-9.0935,-9.1033,-9.1116,-9.1133,-9.1207,-9.1196,-9.1334,-9.1238,-9.1428,-9.1329,-9.1389,-9.1417,-9.1426,-9.144,-9.1331,-9.1508,-9.1809,-9.1842,-9.1453,-9.1449,-9.1446,0,-9.0428,-9.0617,-9.078,-9.0828,-9.0933,-9.1009,-9.1056,-9.1134,-9.1204,-9.1299,-9.1344,-9.1453,-9.1512,-9.1596,-9.1614,-9.1542,-9.1805,-9.171,-9.1823,-9.1823,-9.188,-9.1876,-9.2195,-9.1917,-9.1917,-9.1916,-9.1916,0,-9.0675,-9.0818,-9.0859,-9.096,-9.1118,-9.1131,-9.1288,-9.1329,-9.1399,-9.1506,-9.1486,-9.1586,-9.1604,-9.1708,-9.1723,-9.1879,-9.1906,-9.1923,-9.1925,-9.1925,-9.1923,-9.1965,-9.195,-9.1925,-9.1923,-9.1921,-9.192,0,-9.0895,-9.0929,-9.1105,-9.1191,-9.1215,-9.1329,-9.1402,-9.1497,-9.1527,-9.1663,-9.1696,-9.1743,-9.1865,-9.1891,-9.2035,-9.2045,-9.223,-9.2217,-9.2203,-9.2202,-9.2314,-9.2303,-9.2671,-9.272,-9.241,-9.2413,-9.2415,0,-9.1051,-9.116,-9.1259,-9.133,-9.1382,-9.1496,-9.1569,-9.1585,-9.1661,-9.1766,-9.1849,-9.1969,-9.2066,-9.2261,-9.2307,-9.2417,-9.2407,-9.2529,-9.2423,-9.2421,-9.241,-9.2404,-9.2415,-9.2549,-9.2552,-9.2555,-9.2557,0,-9.1324,-9.1336,-9.1441,-9.1554,-9.1641,-9.173,-9.1814,-9.1873,-9.1902,-9.1988,-9.2113,-9.2189,-9.2337,-9.2456,-9.2567,-9.2613,-9.259,-9.259,-9.2622,-9.2623,-9.2611,-9.262,-9.2258,-9.2581,-9.2579,-9.2577,-9.2576,-9.2575,-9.1517,-9.1614,-9.1699,-9.1818,-9.1884,-9.1963,-9.2058,-9.2101,-9.2207,-9.2331,-9.2333,-9.2471,-9.2552,-9.2698,-9.2752,-9.2858,-9.282,-9.2866,-9.2878,-9.289,-9.2901,-9.2594,-9.2878,-9.2877,-9.2877,-9.2876,-9.2876,0,-9.179,-9.1844,-9.1953,-9.2073,-9.2167,-9.2139,-9.2232,-9.2311,-9.2433,-9.2512,-9.2608,-9.2753,-9.2869,-9.2925,-9.3039,-9.3113,-9.3106,-9.3143,-9.3138,-9.3149,-9.2927,-9.2889,-9.3147,-9.3147,-9.3147,-9.3147,-9.3147,-9.3147,-9.1943,-9.2106,-9.2128,-9.2322,-9.2374,-9.251,-9.2565,-9.2639,-9.2702,-9.2865,-9.2962,-9.2999,-9.3068,-9.3188,-9.3293,-9.3306,-9.3349,-9.3392,-9.34,-9.3192,-9.3164,-9.3138,-9.3102,-9.3401,-9.3401,-9.3613,-9.3615,-9.3616]}]]